Lid_Strength_Index
5 5 4 4 5 6 7 6 5 6 6 6 6 6 5 4 5 5 4 3 4 4 4 4 5 3 2 3 2 2 2 2 4 3 2 3 3 4 5 4 4 5 5
5 5 6 6 6 7 7 6 6 6 6 6 5 5 5 3 4 6 4 3 4 5 5 4 4 3 3 4 3 4 3 2 3 4 3 3 4 5 5 6 6 5 6
5 6 7 6 6 7 7 6 6 6 5 5 5 5 4 4 5 4 3 4 4 5 5 5 5 4 4 4 4 5 4 3 3 3 4 4 4 5 6 6 6 6 6
6 7 7 6 6 6 6 5 5 5 5 5 4 4 4 4 5 5 3 4 4 4 3 4 4 4 4 4 4 5 5 5 3 3 4 5 5 5 6 7 7 7 8
7 7 7 6 6 6 6 5 5 5 5 4 4 4 5 5 5 6 4 3 3 3 3 3 4 4 3 3 5 5 5 5 4 5 5 5 6 6 7 7 8 8 9
7 7 6 5 5 5 5 5 5 5 5 5 5 5 5 5 5 4 3 3 3 3 5 5 6 6 5 4 3 3 3 5 6 4 5 6 6 6 6 7 8 9 10
7 6 5 4 4 5 5 5 5 5 5 4 5 6 7 7 5 5 3 2 2 4 6 7 6 7 7 7 4 3 4 3 4 5 5 5 6 6 7 7 6 6 9
5 5 4 4 4 4 4 5 5 5 5 6 5 6 7 6 5 5 4 2 2 4 7 7 7 8 8 7 5 4 4 4 5 4 5 5 6 6 5 5 5 7 7
6 5 5 5 5 5 5 5 5 6 6 5 4 5 6 7 5 5 4 3 4 5 6 7 7 8 7 7 5 5 5 5 3 5 6 7 7 7 4 4 6 7 7
5 5 5 5 6 6 7 7 7 7 6 5 4 3 4 4 5 6 6 4 4 5 7 8 6 7 8 7 5 5 5 5 5 5 6 7 6 6 5 5 5 6 7
3 4 4 4 6 6 8 8 8 7 6 7 7 5 3 5 6 7 7 6 6 6 7 8 7 7 8 8 7 6 6 4 6 6 7 7 7 7 6 6 7 7 7
4 4 4 4 5 6 8 8 8 8 8 8 8 8 7 6 6 7 7 7 6 8 9 7 7 8 8 7 6 7 6 5 6 7 8 8 8 8 8 7 7 7 8
5 6 6 5 6 7 8 9 8 8 8 8 8 7 7 6 7 7 7 7 6 7 7 7 7 8 7 6 7 7 7 6 6 7 8 8 8 8 7 7 8 7 7
5 5 5 6 8 8 7 7 6 7 8 8 8 8 7 7 7 8 7 7 6 7 7 6 6 7 7 6 6 6 6 6 7 8 8 8 8 8 9 8 9 9 9
6 5 6 6 8 7 6 6 7 8 9 9 9 8 8 9 9 9 9 8 8 8 8 7 8 7 7 7 7 7 6 6 7 7 8 8 8 8 9 8 9 9 10
6 6 6 6 7 6 5 7 9 9 9 9 9 9 8 10 10 10 10 10 10 9 8 8 8 8 8 7 7 7 7 7 7 8 8 8 9 9 9 8 8 9 10
6 4 6 6 6 6 7 8 9 8 8 9 9 9 10 10 10 10 10 10 10 9 8 8 8 8 8 7 7 7 7 7 7 8 8 8 8 9 9 9 10 11 11
6 6 6 6 7 8 8 8 8 9 9 9 8 9 10 10 10 10 9 9 8 8 8 8 7 7 7 7 7 7 7 7 7 8 8 8 8 9 10 11 11 12 12
6 6 7 7 7 7 7 8 7 8 8 8 8 8 8 9 9 9 8 6 7 7 7 7 7 7 7 7 7 7 7 8 8 8 8 8 9 9 11 11 11 11 11
6 7 7 6 6 6 6 6 6 7 7 7 8 9 7 7 7 7 6 7 7 8 8 8 7 7 7 7 7 7 8 8 8 9 9 9 10 10 11 11 11 11 11
5 5 7 5 5 5 6 6 6 7 7 7 8 9 12 7 8 8 8 8 8 7 7 7 7 7 7 7 7 7 7 8 9 9 10 10 10 10 10 10 10 10 10
6 6 5 6 5 5 5 5 6 6 7 7 7 8 12 8 8 8 7 7 7 7 7 7 7 7 7 7 7 7 8 9 8 9 9 9 9 9 9 9 9 9 8
6 6 7 7 6 7 5 5 7 7 7 7 7 7 8 8 8 8 8 8 7 7 7 7 7 7 7 6 6 7 8 9 8 8 8 7 7 7 7 8 8 8 7
8 8 8 8 7 6 6 6 7 8 7 7 7 7 8 8 8 8 8 7 7 7 7 7 8 8 7 7 6 6 7 6 6 6 5 6 6 7 8 8 8 8 8
8 8 8 8 8 7 7 7 7 7 7 7 7 7 7 7 7 7 7 8 7 8 8 8 9 8 9 9 9 9 12 14 11 12 8 8 8 8 8 9 9 9 9
8 8 8 9 9 8 8 8 8 7 7 7 7 7 7 7 7 7 7 8 8 9 9 10 10 10 10 10 11 12 12 12 10 12 7 7 8 8 9 9 10 10 11